COSMOS 2251 DEB

Satellite information

Favourite Embed

Satellite Type and Status

DEBRISIN ORBIT

Key statistics

Satellite COSMOS 2251 DEB at a glance.

Uptime

11710

Days in orbit

Revolutions

≈ 14.5

Per day

Orbit

LEO

Low Earth Orbit

Inclination

74.0

Latest

Satellite identification and parameters

Extended collection of information and parameters for COSMOS 2251 DEB.

Object identification

Identified? True

Debris? True

Object name: COSMOS 2251 DEB

International designator: 1993-036ALP

Object number (NORAD): 35469

Object ID (CCSDS): 35469

Country: COMMONWEALTH OF INDEPENDENT STATES (CIS)

Current information (Y/N): Y

RCS size: SMALL

Orbital parameters

Period: 99.337 minutes

Inclination: 74.0176 deg

SMA: 7105.068 km

Apoapsis: 781.864 km

Periapsis: 672.002 km

RAAN: 329.5617 deg

Eccentricy: 0.0077313

Argument of periapsis: 164.431 deg

Mean anomaly: 195.9256 deg

Mean motion: 14.49607403 rev/day

Mean motion (dot): 0.00000366 rev/day2

B* drag term: 0.000099094 1/REarth

Two-line elements (TLE)

Creation date: July 3, 2025, 5:26 p.m.

Reference frame: TEME

Reference center: EARTH

Epoch: July 3, 2025, 1:48 a.m. UTC

TLE line 0: 0 COSMOS 2251 DEB

TLE line 1: 1 35469U 93036ALP 25184.07521756 .00000366 00000-0 99094-4 0 9991

TLE line 2: 2 35469 74.0176 329.5617 0077313 164.4310 195.9256 14.49607403857541

Live tracking on map

Real-time ground track for satellite COSMOS 2251 DEB.

In-orbit conjunctions

A list of the most updated potential collisions computed for object COSMOS 2251 DEB.

Target Orbit TCA Probability of collision Miss distance Type
CZ-6A DEB LEO 2025-02-06 22:47:52 0.0002270039 804.0 (m) DEBRIS
SL-8 DEB LEO 2024-06-17 06:16:41 0.0005909997 52.0 (m) DEBRIS

Associated space launch

Military communications satellite. Destroyed in a collision with Iridium 33.

COSMOS 2251 DEB was lifted into orbit during the mission ‘Kosmos-3M | Strela-2M 51’, on board a Kosmos-3M space rocket.

The launch took place on June 16, 1993, 4:17 a.m. from 132/1 (132L).

For more information about the launch, click the button.

Launch to space Kosmos-3M | Strela-2M 51
Kosmos-3M | Strela-2M 51

Agency: N/A

Status: Launch Successful

Launch date: June 16, 1993, 4:17 a.m. UTC

Rocket: Kosmos-3M

Launch pad: 132/1 (132L)

Location: Plesetsk Cosmodrome, Russian Federation

...

Latest news about this satellite

There are no fresh news available about this satellite. Check back as we update our databases every day.


Newsletter sign-up

Weekly statistics, charts and insights to help you stay on top of the space industry.